Simultaneous Nadir Overpasses (SNOs) Predictions

Prediction of SNOs between GOES-15 and NOAA-20 Satellite Orbit:

Table of predicted SNOs for the next 14.0 days since TLE Epoch: 9/24/2022
Index Date Time (GOES-15) GOES-15 Lat,Lon NOAA-20 Lat,Lon Distance(km) Time Diff (sec)
1 09/25/2022 10:01:37 0.31,-128.01 0.47,-128.78 88.30 80
2 09/26/2022 09:40:13 0.31,-128.03 -0.54,-124.25 430.90 80
3 09/27/2022 22:02:10 -0.30,-128.01 -0.63,-129.57 176.69 80
4 09/28/2022 21:46:05 -0.31,-128.04 0.38,-125.04 342.58 80
5 09/30/2022 10:07:54 0.29,-128.14 0.77,-130.31 247.85 80
6 10/01/2022 09:46:29 0.30,-128.15 -0.24,-125.78 270.32 80
7 10/02/2022 22:08:27 -0.27,-128.11 -0.92,-131.10 340.02 80
8 10/03/2022 21:52:22 -0.28,-128.12 0.09,-126.57 178.12 80
9 10/05/2022 10:11:30 0.26,-128.22 1.07,-131.84 412.86 80
10 10/06/2022 09:55:26 0.26,-128.23 0.05,-127.31 104.88 80
